| time (UTC) | temp C | wind direction | speed KPH | gust KPH | rain 1hr cm | rain 24hr cm | rain mn cm | humidity % | barometer mb |
| 20260506025602 | 12 | 0 | 17.7 | 25.7 | 0.00 | 0.00 | 0.00 | 70 | 1009.7 |
| 20260506025102 | 12 | 0 | 17.7 | 25.7 | 0.00 | 0.00 | 0.00 | 69 | 1009.7 |
| 20260506024102 | 12 | 0 | 16.1 | 24.1 | 0.00 | 0.00 | 0.00 | 69 | 1009.7 |
| 20260506023604 | 12 | 0 | 14.5 | 20.9 | 0.00 | 0.00 | 0.00 | 69 | 1009.7 |
| 20260506023102 | 12 | 0 | 14.5 | 20.9 | 0.00 | 0.00 | 0.00 | 69 | 1009.7 |
| 20260506022604 | 12 | 0 | 14.5 | 22.5 | 0.00 | 0.00 | 0.00 | 68 | 1009.6 |
| 20260506022058 | 12 | 0 | 14.5 | 22.5 | 0.00 | 0.00 | 0.00 | 68 | 1009.7 |
| 20260506021058 | 13 | 0 | 14.5 | 22.5 | 0.00 | 0.00 | 0.00 | 68 | 1009.5 |
| 20260506020558 | 13 | 0 | 16.1 | 25.7 | 0.00 | 0.00 | 0.00 | 68 | 1009.5 |
| 20260506020109 | 13 | 0 | 17.7 | 25.7 | 0.00 | 0.00 | 0.00 | 67 | 1009.5 |
| 20260506014600 | 13 | 0 | 17.7 | 29.0 | 0.00 | 0.00 | 0.00 | 67 | 1009.3 |
| 20260506014059 | 13 | 0 | 17.7 | 27.4 | 0.00 | 0.00 | 0.00 | 67 | 1009.3 |
| 20260506013558 | 13 | 0 | 17.7 | 27.4 | 0.00 | 0.00 | 0.00 | 67 | 1009.3 |
| 20260506012100 | 13 | 0 | 17.7 | 29.0 | 0.00 | 0.00 | 0.00 | 67 | 1008.7 |
| 20260506011601 | 13 | 0 | 17.7 | 25.7 | 0.00 | 0.00 | 0.00 | 67 | 1008.6 |
| 20260506011059 | 13 | 0 | 17.7 | 27.4 | 0.00 | 0.00 | 0.00 | 66 | 1008.6 |
| 20260506010559 | 13 | 0 | 16.1 | 27.4 | 0.00 | 0.00 | 0.00 | 66 | 1008.4 |
| 20260506005558 | 14 | 0 | 16.1 | 29.0 | 0.00 | 0.00 | 0.00 | 66 | 1008.4 |
| 20260506004558 | 14 | 0 | 17.7 | 30.6 | 0.00 | 0.00 | 0.00 | 65 | 1008.3 |
| 20260506004053 | 14 | 0 | 17.7 | 30.6 | 0.00 | 0.00 | 0.00 | 65 | 1007.9 |
| 20260506003547 | 14 | 0 | 17.7 | 30.6 | 0.00 | 0.00 | 0.00 | 65 | 1008.1 |
| 20260506003040 | 14 | 71 | 17.7 | 29.0 | 0.00 | 0.00 | 0.00 | 64 | 1007.9 |
| 20260506002535 | 15 | 0 | 19.3 | 30.6 | 0.00 | 0.00 | 0.00 | 64 | 1007.8 |
| 20260506001523 | 15 | 0 | 19.3 | 30.6 | 0.00 | 0.00 | 0.00 | 64 | 1008.0 |
| 20260506000514 | 15 | 0 | 16.1 | 29.0 | 0.00 | 0.00 | 0.00 | 64 | 1008.0 |
| 20260506000014 | 15 | 0 | 17.7 | 29.0 | 0.00 | 0.00 | 0.00 | 63 | 1007.9 |
| 20260505235519 | 15 | 0 | 19.3 | 33.8 | 0.00 | 0.00 | 0.00 | 63 | 1007.7 |
| 20260505235015 | 15 | 0 | 20.9 | 33.8 | 0.00 | 0.00 | 0.00 | 63 | 1007.4 |
| 20260505234514 | 15 | 0 | 19.3 | 33.8 | 0.00 | 0.00 | 0.00 | 63 | 1007.7 |
| 20260505234014 | 16 | 0 | 19.3 | 30.6 | 0.00 | 0.00 | 0.00 | 63 | 1007.7 |
| 20260505233515 | 16 | 0 | 19.3 | 30.6 | 0.00 | 0.00 | 0.00 | 62 | 1007.4 |
| 20260505233014 | 16 | 0 | 19.3 | 29.0 | 0.00 | 0.00 | 0.00 | 62 | 1007.5 |
| 20260505232014 | 16 | 0 | 17.7 | 27.4 | 0.00 | 0.00 | 0.00 | 62 | 1007.4 |
| 20260505231513 | 16 | 0 | 17.7 | 29.0 | 0.00 | 0.00 | 0.00 | 62 | 1007.1 |
| 20260505231012 | 16 | 0 | 19.3 | 29.0 | 0.00 | 0.00 | 0.00 | 61 | 1007.2 |
| 20260505230513 | 16 | 0 | 17.7 | 29.0 | 0.00 | 0.00 | 0.00 | 61 | 1007.1 |
| 20260505225513 | 17 | 0 | 17.7 | 29.0 | 0.00 | 0.00 | 0.00 | 60 | 1007.5 |
| 20260505225011 | 17 | 0 | 17.7 | 32.2 | 0.00 | 0.00 | 0.00 | 59 | 1007.5 |
| 20260505224514 | 17 | 67 | 19.3 | 32.2 | 0.00 | 0.00 | 0.00 | 58 | 1007.1 |
| 20260505224006 | 17 | 327 | 17.7 | 29.0 | 0.00 | 0.00 | 0.00 | 58 | 1007.2 |
| 20260505223500 | 18 | 0 | 17.7 | 29.0 | 0.00 | 0.00 | 0.00 | 57 | 1007.5 |
| 20260505222954 | 18 | 0 | 16.1 | 27.4 | 0.00 | 0.00 | 0.00 | 56 | 1007.4 |
| 20260505222449 | 18 | 0 | 12.9 | 27.4 | 0.00 | 0.00 | 0.00 | 55 | 1007.3 |
| 20260505220944 | 19 | 0 | 11.3 | 27.4 | 0.00 | 0.00 | 0.00 | 53 | 1007.5 |
| 20260505220424 | 20 | 0 | 11.3 | 22.5 | 0.00 | 0.00 | 0.00 | 52 | 1007.3 |
| 20260505215919 | 20 | 14 | 11.3 | 22.5 | 0.00 | 0.00 | 0.00 | 52 | 1007.3 |
| 20260505215412 | 20 | 0 | 12.9 | 25.7 | 0.00 | 0.00 | 0.00 | 52 | 1007.3 |
| 20260505214907 | 20 | 0 | 14.5 | 29.0 | 0.00 | 0.00 | 0.00 | 51 | 1007.4 |
| 20260505214401 | 20 | 0 | 14.5 | 29.0 | 0.00 | 0.00 | 0.00 | 51 | 1007.5 |
| 20260505213854 | 20 | 0 | 14.5 | 29.0 | 0.00 | 0.00 | 0.00 | 49 | 1007.4 |
| 20260505212842 | 21 | 0 | 12.9 | 32.2 | 0.00 | 0.00 | 0.00 | 48 | 1007.3 |
| 20260505212337 | 21 | 26 | 11.3 | 24.1 | 0.00 | 0.00 | 0.00 | 47 | 1007.3 |
| 20260505211830 | 21 | 0 | 11.3 | 22.5 | 0.00 | 0.00 | 0.00 | 47 | 1007.4 |
| 20260505211337 | 21 | 22 | 12.9 | 22.5 | 0.00 | 0.00 | 0.00 | 47 | 1007.6 |
| 20260505210819 | 21 | 0 | 11.3 | 22.5 | 0.00 | 0.00 | 0.00 | 46 | 1007.5 |
| 20260505205806 | 22 | 72 | 11.3 | 29.0 | 0.00 | 0.00 | 0.00 | 45 | 1007.3 |
| 20260505205300 | 22 | 0 | 9.7 | 29.0 | 0.00 | 0.00 | 0.00 | 44 | 1007.4 |
| 20260505204754 | 22 | 0 | 9.7 | 20.9 | 0.00 | 0.00 | 0.00 | 45 | 1007.4 |
| 20260505204248 | 22 | 0 | 11.3 | 24.1 | 0.00 | 0.00 | 0.00 | 45 | 1007.4 |
| 20260505203743 | 22 | 0 | 9.7 | 24.1 | 0.00 | 0.00 | 0.00 | 45 | 1007.5 |
| 20260505203236 | 22 | 35 | 9.7 | 25.7 | 0.00 | 0.00 | 0.00 | 45 | 1007.2 |
| 20260505202224 | 22 | 17 | 9.7 | 20.9 | 0.00 | 0.00 | 0.00 | 45 | 1007.2 |
| 20260505201213 | 22 | 0 | 12.9 | 32.2 | 0.00 | 0.00 | 0.00 | 45 | 1007.2 |
| 20260505200707 | 22 | 0 | 11.3 | 27.4 | 0.00 | 0.00 | 0.00 | 45 | 1006.9 |
| 20260505200200 | 22 | 0 | 9.7 | 20.9 | 0.00 | 0.00 | 0.00 | 45 | 1006.9 |
| 20260505195149 | 22 | 0 | 9.7 | 22.5 | 0.00 | 0.00 | 0.00 | 45 | 1006.9 |
| 20260505194643 | 22 | 46 | 9.7 | 20.9 | 0.00 | 0.00 | 0.00 | 46 | 1007.0 |
| 20260505194137 | 22 | 0 | 9.7 | 20.9 | 0.00 | 0.00 | 0.00 | 45 | 1007.0 |
| 20260505193631 | 22 | 313 | 9.7 | 19.3 | 0.00 | 0.00 | 0.00 | 45 | 1007.2 |
| 20260505193125 | 22 | 0 | 9.7 | 20.9 | 0.00 | 0.00 | 0.00 | 45 | 1007.0 |
| 20260505192113 | 22 | 0 | 11.3 | 24.1 | 0.00 | 0.00 | 0.00 | 45 | 1007.0 |
| 20260505191101 | 22 | 0 | 12.9 | 32.2 | 0.00 | 0.00 | 0.00 | 45 | 1006.9 |
| 20260505190555 | 22 | 0 | 14.5 | 25.7 | 0.00 | 0.00 | 0.00 | 45 | 1006.8 |
| 20260505185544 | 22 | 0 | 12.9 | 25.7 | 0.00 | 0.00 | 0.00 | 45 | 1006.7 |
| 20260505185043 | 22 | 67 | 9.7 | 24.1 | 0.00 | 0.00 | 0.00 | 46 | 1006.9 |
| 20260505184041 | 22 | 0 | 12.9 | 30.6 | 0.00 | 0.00 | 0.00 | 47 | 1007.1 |
| 20260505183539 | 22 | 0 | 11.3 | 30.6 | 0.00 | 0.00 | 0.00 | 47 | 1007.2 |
| 20260505183038 | 22 | 0 | 9.7 | 20.9 | 0.00 | 0.00 | 0.00 | 49 | 1007.0 |
| 20260505182540 | 22 | 0 | 9.7 | 24.1 | 0.00 | 0.00 | 0.00 | 49 | 1007.0 |
| 20260505182035 | 22 | 329 | 11.3 | 27.4 | 0.00 | 0.00 | 0.00 | 49 | 1007.0 |
| 20260505181536 | 22 | 0 | 12.9 | 29.0 | 0.00 | 0.00 | 0.00 | 48 | 1006.8 |
| 20260505180535 | 22 | 0 | 11.3 | 24.1 | 0.00 | 0.00 | 0.00 | 49 | 1007.1 |
| 20260505180034 | 22 | 0 | 12.9 | 25.7 | 0.00 | 0.00 | 0.00 | 49 | 1006.9 |
| 20260505175535 | 22 | 0 | 12.9 | 25.7 | 0.00 | 0.00 | 0.00 | 49 | 1006.8 |
| 20260505175033 | 22 | 0 | 12.9 | 25.7 | 0.00 | 0.00 | 0.00 | 49 | 1007.0 |
| 20260505174535 | 22 | 0 | 11.3 | 27.4 | 0.00 | 0.00 | 0.00 | 50 | 1007.1 |
| 20260505174035 | 22 | 0 | 11.3 | 27.4 | 0.00 | 0.00 | 0.00 | 49 | 1006.7 |
| 20260505173531 | 22 | 0 | 12.9 | 27.4 | 0.00 | 0.00 | 0.00 | 50 | 1006.9 |
| 20260505173031 | 22 | 0 | 12.9 | 25.7 | 0.00 | 0.00 | 0.00 | 51 | 1006.7 |
| 20260505172530 | 22 | 342 | 12.9 | 25.7 | 0.00 | 0.00 | 0.00 | 51 | 1006.9 |
| 20260505172029 | 22 | 305 | 14.5 | 27.4 | 0.00 | 0.00 | 0.00 | 52 | 1007.1 |
| 20260505171530 | 22 | 0 | 14.5 | 27.4 | 0.00 | 0.00 | 0.00 | 52 | 1007.2 |
| 20260505171031 | 22 | 323 | 12.9 | 30.6 | 0.00 | 0.00 | 0.00 | 51 | 1006.7 |
| 20260505170531 | 22 | 0 | 12.9 | 30.6 | 0.00 | 0.00 | 0.00 | 51 | 1006.7 |
| 20260505170030 | 22 | 0 | 12.9 | 27.4 | 0.00 | 0.00 | 0.00 | 52 | 1006.6 |
| 20260505165530 | 22 | 0 | 11.3 | 27.4 | 0.00 | 0.00 | 0.00 | 52 | 1006.2 |
| 20260505165025 | 23 | 42 | 11.3 | 24.1 | 0.00 | 0.00 | 0.00 | 53 | 1006.0 |
| 20260505164527 | 23 | 0 | 12.9 | 29.0 | 0.00 | 0.00 | 0.00 | 52 | 1005.9 |
| 20260505164026 | 23 | 0 | 12.9 | 29.0 | 0.00 | 0.00 | 0.00 | 53 | 1005.8 |
| 20260505163025 | 23 | 0 | 11.3 | 22.5 | 0.00 | 0.00 | 0.00 | 55 | 1005.6 |
| 20260505162026 | 23 | 0 | 11.3 | 25.7 | 0.00 | 0.00 | 0.00 | 55 | 1005.4 |
| 20260505161527 | 23 | 0 | 11.3 | 25.7 | 0.00 | 0.00 | 0.00 | 55 | 1005.3 |
| 20260505161026 | 23 | 0 | 11.3 | 25.7 | 0.00 | 0.00 | 0.00 | 55 | 1005.1 |
| 20260505160521 | 23 | 79 | 9.7 | 25.7 | 0.00 | 0.00 | 0.00 | 55 | 1004.8 |
| 20260505153021 | 24 | 0 | 14.5 | 32.2 | 0.00 | 0.00 | 0.00 | 57 | 1004.4 |
| 20260505152019 | 24 | 0 | 12.9 | 27.4 | 0.00 | 0.00 | 0.00 | 55 | 1004.3 |
| 20260505151519 | 24 | 0 | 14.5 | 38.6 | 0.00 | 0.00 | 0.00 | 55 | 1004.3 |
| 20260505151020 | 24 | 299 | 14.5 | 38.6 | 0.00 | 0.00 | 0.00 | 54 | 1004.2 |
| 20260505150518 | 24 | 0 | 14.5 | 30.6 | 0.00 | 0.00 | 0.00 | 52 | 1004.3 |
| 20260505140507 | 24 | 311 | 12.9 | 24.1 | 0.00 | 0.00 | 0.00 | 29 | 1003.1 |
| 20260505125000 | 22 | 0 | 6.4 | 14.5 | 0.00 | 0.00 | 0.00 | 58 | 1001.2 |
| 20260505123954 | 22 | 244 | 6.4 | 14.5 | 0.00 | 0.00 | 0.00 | 59 | 1001.0 |
| 20260505123449 | 22 | 0 | 8.0 | 14.5 | 0.00 | 0.00 | 0.00 | 59 | 1001.1 |
| 20260505122941 | 22 | 0 | 8.0 | 14.5 | 0.00 | 0.00 | 0.00 | 59 | 1000.9 |
| 20260505122436 | 22 | 0 | 8.0 | 16.1 | 0.00 | 0.00 | 0.00 | 59 | 1000.8 |
| 20260505121930 | 22 | 0 | 9.7 | 16.1 | 0.00 | 0.00 | 0.00 | 58 | 1000.9 |
| 20260505115400 | 22 | 0 | 9.7 | 16.1 | 0.00 | 0.00 | 0.00 | 57 | 1000.6 |
| 20260505114854 | 22 | 0 | 9.7 | 16.1 | 0.00 | 0.00 | 0.00 | 57 | 1000.5 |
| 20260505114347 | 22 | 0 | 9.7 | 19.3 | 0.00 | 0.00 | 0.00 | 57 | 1000.5 |
| 20260505113842 | 22 | 0 | 11.3 | 20.9 | 0.00 | 0.00 | 0.00 | 57 | 1000.5 |
| 20260505113336 | 22 | 0 | 12.9 | 22.5 | 0.00 | 0.00 | 0.00 | 57 | 1000.3 |
| 20260505112830 | 23 | 0 | 14.5 | 22.5 | 0.00 | 0.00 | 0.00 | 56 | 1000.2 |
| 20260505112324 | 23 | 0 | 14.5 | 22.5 | 0.00 | 0.00 | 0.00 | 56 | 1000.0 |
| 20260505111818 | 23 | 0 | 14.5 | 22.5 | 0.00 | 0.00 | 0.00 | 56 | 1000.0 |
| 20260505111312 | 23 | 0 | 12.9 | 22.5 | 0.00 | 0.00 | 0.00 | 56 | 1000.0 |
| 20260505110806 | 23 | 0 | 11.3 | 20.9 | 0.00 | 0.00 | 0.00 | 55 | 1000.1 |
| 20260505102212 | 23 | 0 | 14.5 | 27.4 | 0.00 | 0.00 | 0.00 | 55 | 999.6 |
| 20260505101706 | 23 | 0 | 14.5 | 20.9 | 0.00 | 0.00 | 0.00 | 54 | 999.6 |
| 20260505101200 | 23 | 0 | 14.5 | 20.9 | 0.00 | 0.00 | 0.00 | 54 | 999.7 |
| 20260505100147 | 23 | 0 | 14.5 | 22.5 | 0.00 | 0.00 | 0.00 | 54 | 999.7 |
| 20260505094630 | 23 | 0 | 14.5 | 22.5 | 0.00 | 0.00 | 0.00 | 53 | 999.5 |
| 20260505094124 | 24 | 0 | 14.5 | 24.1 | 0.00 | 0.00 | 0.00 | 52 | 999.5 |
| 20260505093617 | 24 | 0 | 14.5 | 24.1 | 0.00 | 0.00 | 0.00 | 52 | 999.5 |
| 20260505093111 | 24 | 0 | 12.9 | 22.5 | 0.00 | 0.00 | 0.00 | 52 | 999.5 |
| 20260505092606 | 24 | 0 | 12.9 | 22.5 | 0.00 | 0.00 | 0.00 | 52 | 999.4 |
| 20260505092100 | 24 | 0 | 12.9 | 22.5 | 0.00 | 0.00 | 0.00 | 52 | 999.4 |
| 20260505091553 | 24 | 0 | 12.9 | 20.9 | 0.00 | 0.00 | 0.00 | 52 | 999.4 |
| 20260505091048 | 24 | 0 | 12.9 | 22.5 | 0.00 | 0.00 | 0.00 | 51 | 999.6 |
| 20260505090036 | 24 | 0 | 12.9 | 20.9 | 0.00 | 0.00 | 0.00 | 51 | 999.6 |
| 20260505085531 | 25 | 0 | 12.9 | 22.5 | 0.00 | 0.00 | 0.00 | 51 | 999.5 |
| 20260505085031 | 25 | 0 | 14.5 | 22.5 | 0.00 | 0.00 | 0.00 | 51 | 999.6 |
| 20260505084031 | 25 | 0 | 14.5 | 24.1 | 0.00 | 0.00 | 0.00 | 51 | 999.7 |
| 20260505083032 | 24 | 0 | 14.5 | 25.7 | 0.00 | 0.00 | 0.00 | 51 | 999.7 |
| 20260505082531 | 24 | 0 | 14.5 | 25.7 | 0.00 | 0.00 | 0.00 | 52 | 999.7 |
| 20260505081528 | 24 | 0 | 14.5 | 24.1 | 0.00 | 0.00 | 0.00 | 52 | 999.9 |
| 20260505081026 | 24 | 0 | 12.9 | 24.1 | 0.00 | 0.00 | 0.00 | 53 | 999.9 |
| 20260505080527 | 23 | 0 | 14.5 | 24.1 | 0.00 | 0.00 | 0.00 | 53 | 999.8 |
| 20260505075527 | 23 | 0 | 14.5 | 24.1 | 0.00 | 0.00 | 0.00 | 54 | 999.9 |
| 20260505075028 | 22 | 0 | 14.5 | 22.5 | 0.00 | 0.00 | 0.00 | 55 | 999.9 |
| 20260505074527 | 22 | 0 | 12.9 | 20.9 | 0.00 | 0.00 | 0.00 | 56 | 999.9 |
| 20260505074028 | 22 | 0 | 9.7 | 20.9 | 0.00 | 0.00 | 0.00 | 55 | 999.9 |
| 20260505073528 | 21 | 0 | 6.4 | 19.3 | 0.00 | 0.00 | 0.00 | 54 | 1000.0 |
| 20260505072516 | 21 | 0 | 3.2 | 12.9 | 0.00 | 0.00 | 0.00 | 51 | 1000.2 |
| 20260505072010 | 21 | 0 | 1.6 | 8.0 | 0.00 | 0.00 | 0.00 | 50 | 1000.2 |
| 20260505071503 | 21 | 0 | 1.6 | 6.4 | 0.00 | 0.00 | 0.00 | 49 | 1000.2 |
| 20260505071001 | 21 | 0 | 1.6 | 8.0 | 0.00 | 0.00 | 0.00 | 48 | 1000.2 |
| 20260505070001 | 21 | 0 | 0.0 | 4.8 | 0.00 | 0.00 | 0.00 | 47 | 1000.4 |
| 20260505065502 | 21 | 0 | 0.0 | 4.8 | 0.00 | 0.00 | 0.00 | 46 | 1000.3 |
| 20260505065001 | 21 | 0 | 0.0 | 3.2 | 0.00 | 0.00 | 0.00 | 46 | 1000.3 |
| 20260505064500 | 21 | 0 | 0.0 | 1.6 | 0.00 | 0.00 | 0.00 | 46 | 1000.4 |
| 20260505064001 | 22 | 0 | 1.6 | 4.8 | 0.00 | 0.00 | 0.00 | 46 | 1000.5 |
| 20260505063001 | 22 | 0 | 3.2 | 6.4 | 0.00 | 0.00 | 0.00 | 45 | 1000.7 |
| 20260505062500 | 22 | 0 | 3.2 | 6.4 | 0.00 | 0.00 | 0.00 | 46 | 1000.7 |
| 20260505062001 | 22 | 0 | 4.8 | 12.9 | 0.00 | 0.00 | 0.00 | 47 | 1000.7 |
| 20260505061500 | 22 | 0 | 3.2 | 12.9 | 0.00 | 0.00 | 0.00 | 47 | 1000.7 |
| 20260505061002 | 23 | 0 | 1.6 | 8.0 | 0.00 | 0.00 | 0.00 | 49 | 1000.8 |
| 20260505060500 | 23 | 0 | 1.6 | 6.4 | 0.00 | 0.00 | 0.00 | 50 | 1000.8 |
| 20260505060002 | 23 | 0 | 3.2 | 6.4 | 0.00 | 0.00 | 0.00 | 51 | 1000.9 |
| 20260505055500 | 23 | 0 | 3.2 | 6.4 | 0.00 | 0.00 | 0.00 | 51 | 1000.8 |
| 20260505055002 | 23 | 0 | 3.2 | 8.0 | 0.00 | 0.00 | 0.00 | 51 | 1000.8 |
| 20260505054500 | 23 | 0 | 3.2 | 8.0 | 0.00 | 0.00 | 0.00 | 51 | 1000.8 |
| 20260505054001 | 23 | 0 | 3.2 | 6.4 | 0.00 | 0.00 | 0.00 | 51 | 1000.7 |
| 20260505053500 | 24 | 0 | 3.2 | 6.4 | 0.00 | 0.00 | 0.00 | 52 | 1000.7 |
| 20260505052502 | 24 | 0 | 3.2 | 14.5 | 0.00 | 0.00 | 0.00 | 52 | 1000.8 |
| 20260505052003 | 25 | 0 | 6.4 | 14.5 | 0.00 | 0.00 | 0.00 | 52 | 1000.8 |
| 20260505051458 | 25 | 0 | 4.8 | 9.7 | 0.00 | 0.00 | 0.00 | 51 | 1001.0 |
| 20260505050958 | 25 | 0 | 3.2 | 8.0 | 0.00 | 0.00 | 0.00 | 50 | 1000.9 |
| 20260505050459 | 25 | 0 | 3.2 | 8.0 | 0.00 | 0.00 | 0.00 | 50 | 1000.9 |
| 20260505041406 | 26 | 0 | 4.8 | 12.9 | 0.00 | 0.00 | 0.00 | 50 | 1000.9 |
| 20260505040900 | 26 | 0 | 4.8 | 12.9 | 0.00 | 0.00 | 0.00 | 50 | 1000.9 |
| 20260505040355 | 26 | 0 | 4.8 | 14.5 | 0.00 | 0.00 | 0.00 | 50 | 1000.9 |
| 20260505035848 | 26 | 0 | 6.4 | 14.5 | 0.00 | 0.00 | 0.00 | 50 | 1000.9 |
| 20260505035343 | 27 | 0 | 6.4 | 12.9 | 0.00 | 0.00 | 0.00 | 50 | 1001.0 |
| 20260505034837 | 27 | 0 | 4.8 | 12.9 | 0.00 | 0.00 | 0.00 | 50 | 1001.0 |
| 20260505034330 | 27 | 0 | 4.8 | 12.9 | 0.00 | 0.00 | 0.00 | 49 | 1001.0 |
| 20260505033825 | 27 | 0 | 6.4 | 12.9 | 0.00 | 0.00 | 0.00 | 49 | 1000.9 |
| 20260505033319 | 27 | 0 | 6.4 | 14.5 | 0.00 | 0.00 | 0.00 | 48 | 1000.9 |
| 20260505032813 | 27 | 0 | 6.4 | 14.5 | 0.00 | 0.00 | 0.00 | 48 | 1000.9 |
| 20260505032306 | 27 | 0 | 6.4 | 14.5 | 0.00 | 0.00 | 0.00 | 48 | 1001.0 |
| 20260505031800 | 27 | 0 | 8.0 | 16.1 | 0.00 | 0.00 | 0.00 | 47 | 1001.0 |
| 20260505031254 | 28 | 0 | 8.0 | 16.1 | 0.00 | 0.00 | 0.00 | 47 | 1001.0 |
| 20260505030243 | 28 | 0 | 8.0 | 17.7 | 0.00 | 0.00 | 0.00 | 46 | 1000.7 |